Location: Luz Observatory
(34.5000°N, 117.2833°W)
Time: 04:04:56
(UTC-07:00)

Daily predictions for brighter satellites

Satellite Brightness Start Highest point End
(mag) Time Altitude Azimuth Time Altitude Azimuth Time Altitude Azimuth
Cosmos 2333 Rocket 3.5 00:12:06 10° NNW 00:15:37 34° WNW 00:15:37 34° WNW
H-2A R/B 4.4 00:24:33 22° N 00:24:33 22° N 00:26:09 10° N
SL-16 R/B 3.5 00:18:24 10° N 00:22:35 35° NE 00:22:35 35° NE
Mayak 1.2 00:30:02 10° N 00:31:30 21° N 00:31:30 21° N
Cosmos 2297 Rocket 3.4 00:38:31 37° NW 00:38:31 37° NW 00:42:50 10° N
Cosmos 2266 Rocket 4.5 00:33:05 10° N 00:38:07 58° NNW 00:38:07 58° NNW
Cosmos 2227 Rocket 3.6 00:41:33 32° NW 00:41:33 32° NW 00:45:59 10° N
CZ-4C R/B 4.0 00:41:18 10° NW 00:46:24 32° W 00:46:24 32° W
Cosmos 2237 Rocket 3.7 00:46:18 10° NW 00:49:16 29° NW 00:49:16 29° NW
ADEOS Rocket 4.3 01:19:35 10° N 01:23:19 28° NW 01:23:19 28° NW
NOSS 3-1 (C) 4.0 01:27:45 48° NE 01:27:45 48° NE 01:32:11 10° NNE
Cosmos 1745 Rocket 4.4 01:25:57 10° N 01:31:39 58° ENE 01:31:39 58° ENE
CZ-2D R/B 4.5 01:30:42 10° ENE 01:32:32 13° E 01:32:32 13° E
S3M 4.3 01:44:57 62° NNW 01:44:57 62° NNW 01:50:10 10° N
USA 229 DEB 4.3 01:44:50 45° WNW 01:45:07 45° NW 01:51:41 10° NNE
USA 229 4.3 01:44:58 46° WNW 01:45:13 46° NW 01:51:47 10° NNE
NOSS 3-1 (A) 3.8 01:47:39 54° NE 01:47:39 54° NE 01:52:27 10° NE
Resurs 1-4 Rocket 3.9 01:50:47 10° NE 01:54:35 23° E 01:54:35 23° E
USA 267 3.9 01:56:07 10° ENE 02:01:37 43° ESE 02:01:37 43° ESE
Cosmos 2263 Rocket 2.6 02:04:28 61° NNE 02:04:28 61° NNE 02:09:09 10° NNE
DELTA 2 R/B (1) 4.3 02:05:38 49° NNW 02:06:09 50° N 02:11:36 10° ENE
Cosmos 1943 3.8 02:01:39 10° N 02:07:11 51° ENE 02:07:25 50° ENE
SL-16 R/B 4.3 02:02:58 10° NW 02:04:27 16° WNW 02:04:27 16° WNW
Cosmos 1709 Rocket 4.3 02:02:59 10° N 02:09:15 58° E 02:09:46 56° ESE
Cosmos 2285 Rocket 4.0 02:13:13 73° E 02:13:13 73° E 02:19:26 10° NNE
GEOS 3 Rocket 4.3 02:14:38 10° NNE 02:19:20 48° NW 02:19:20 48° NW
Cosmos 1269 Rocket 4.4 02:30:29 60° ENE 02:30:29 60° ENE 02:35:14 10° NNE
Cosmos 2221 3.6 02:35:49 10° N 02:38:48 43° N 02:38:48 43° N
NOSS 2-3 (D) 4.3 02:41:31 53° ENE 02:41:31 53° ENE 02:45:37 10° NE
Cosmos 1452 Rocket 4.0 02:36:34 10° NNW 02:40:37 52° NW 02:40:37 52° NW
Cosmos 1048 Rocket 4.3 02:46:50 58° NW 02:46:50 58° NW 02:51:31 10° N
Cosmos 1626 3.7 02:52:30 32° N 02:52:30 32° N 02:54:35 10° N
SL-24 R/B - RUBIN 2 4.2 02:56:34 58° WNW 02:56:34 58° WNW 03:01:23 10° NNE
Geosat 4.0 02:53:01 10° NNE 02:58:02 67° ESE 02:58:17 66° SE
Meteor 2-19 Rocket 4.3 02:51:59 10° N 02:58:04 89° W 02:59:14 61° S
NOSS 2-3 (E) 3.8 03:01:40 73° NNW 03:01:40 73° NNW 03:06:29 10° NNE
SL-16 R/B 2.4 02:59:48 53° S 03:01:26 87° WSW 03:07:41 10° NNW
Cosmos 1766 Rocket 3.6 03:04:53 72° NE 03:04:53 72° NE 03:08:56 10° N
Centaur D-1AR AC-394.303:11:38SE03:11:38SE02:49:38WSW
OAO 1 4.4 03:08:22 72° S 03:08:37 73° SSE 03:14:08 10° E
ATLAS 2AS CENTAUR R/B 3.9 03:05:41 25° SSE 03:09:23 39° ESE 03:16:41 10° NE
IRS-1C 4.0 03:04:35 10° N 03:09:54 69° WNW 03:10:25 64° WSW
Spot 4 Rocket 4.0 03:07:31 10° NNE 03:12:41 80° ESE 03:13:34 61° S
CZ-2D R/B 2.1 03:08:19 10° N 03:13:26 60° WNW 03:13:51 58° W
Cosmos 921 Rocket 3.2 03:10:43 10° N 03:15:00 69° ENE 03:15:35 61° ESE
SeaSat 1 2.5 03:14:42 31° SE 03:17:03 76° ENE 03:22:00 10° NNW
Cosmos 1703 3.6 03:27:17 53° NW 03:27:17 53° NW 03:30:43 10° N
Cosmos 1844 Rocket 2.6 03:27:19 50° SSW 03:28:54 86° WNW 03:34:37 10° NNE
IRS-1D 3.9 03:25:02 10° N 03:30:12 51° WNW 03:31:09 45° WSW
H-2A R/B 3.7 03:27:22 10° N 03:31:02 29° WNW 03:31:02 29° WNW
Cosmos 1408 Rocket 3.5 03:32:05 60° W 03:32:13 60° W 03:36:31 10° N
Cosmos 1809 Rocket 4.5 03:28:15 10° N 03:34:22 80° E 03:38:45 20° S
Resurs 1-4 Rocket 2.8 03:29:58 10° N 03:34:48 37° WNW 03:35:40 34° W
Cosmos 1110 Rocket 3.9 03:30:37 10° NNW 03:35:50 85° ENE 03:39:26 20° SSE
ARIANE 5 R/B 2.6 03:31:08 10° N 03:36:08 60° WNW 03:37:17 47° SW
Centaur D-1A AC-35 4.4 03:33:25 33° SW 03:36:39 45° S 04:22:01 10° ESE
Cosmos 2278 Rocket 3.6 03:33:13 15° SSE 03:37:01 32° ESE 03:41:58 10° NE
Cosmos 494 Rocket 4.3 03:39:14 42° WSW 03:40:20 50° WNW 03:45:24 10° N
Cosmos 1844 3.6 03:39:31 40° SSW 03:41:38 89° WNW 03:47:20 10° NNE
UNKNOWN OBJECT B 2.6 03:38:02 10° NNE 03:41:46 83° E 03:42:24 60° S
Cosmos 1151 Rocket 3.8 03:37:35 10° N 03:41:50 50° E 03:45:15 15° SSE
SL-08 R/B 4.3 03:44:02 30° W 03:44:02 30° W 03:47:59 10° NW
Cosmos 2058 2.9 03:43:47 56° SW 03:44:24 64° W 03:48:35 10° N
Helios 1A Rocket 2.8 03:40:32 10° N 03:44:38 85° WNW 03:45:33 53° SSW
USA 267 3.9 03:39:03 10° NNE 03:45:14 46° NW 03:48:58 23° W
Cosmos 2263 Rocket 4.3 03:46:09 11° WNW 03:48:04 12° NW 03:50:21 10° NNW
Nadezhda 1 Rocket 4.1 03:49:41 33° SW 03:52:20 56° W 03:58:30 10° N
CZ-2D R/B 3.6 03:48:23 10° N 03:52:50 71° WNW 03:54:21 40° SSW
DELTA 2 R/B (1) 3.6 03:47:21 10° WNW 03:52:58 83° NNE 03:58:36 10° ESE
BREEZE-M DEB (TANK) 3.8 03:49:45 27° SW 03:54:06 63° SE 03:57:14 10° ENE
Cosmos 1455 2.5 03:50:54 10° NNW 03:54:26 43° W 03:54:26 43° W
Cosmos 2074 Rocket 4.3 03:48:54 10° NNW 03:54:47 46° W 03:57:30 29° SW
ADEOS II 2.2 03:51:16 10° NNE 03:56:32 73° ESE 04:00:08 21° S
Cosmos 1869 4.2 03:52:44 10° N 03:56:33 47° E 04:00:20 10° SSE
SWAS 4.5 03:53:40 10° NNW 03:57:53 55° WSW 03:59:45 30° S
Cosmos 2184 Rocket 4.4 03:53:16 10° NNW 03:59:17 45° W 04:02:22 26° SW
Cosmos 2154 Rocket 3.9 03:55:20 10° N 04:01:39 80° W 04:07:57 10° S
Timation 1 Rocket 4.5 03:59:06 30° SW 04:01:58 59° WNW 04:07:51 10° NNE
Cosmos 1743 Rocket 3.6 04:01:12 37° SW 04:02:40 57° W 04:06:56 10° N
Cosmos 1607 4.0 03:57:43 10° NW 04:03:58 58° WSW 04:10:04 10° SSE
OAO 2 Rocket 3.3 04:06:42 20° W 04:10:08 84° N 04:15:05 10° E
COSMOS 2406 3.5 04:04:24 10° NNW 04:10:11 71° ENE 04:15:55 10° SSE
Cosmos 2151 3.7 04:11:38 29° WSW 04:12:54 35° W 04:16:52 10° NNW
BREEZE-M DEB (TANK) 3.3 04:08:15 10° NW 04:17:10 65° SW 04:20:12 10° SE
Cosmos 1805 Rocket 4.4 04:13:07 10° SSE 04:17:16 48° E 04:21:27 10° NNE
Cosmos 1331 Rocket 4.4 04:12:52 10° NNW 04:17:41 41° WSW 04:21:37 15° SSW
Cosmos 1295 Rocket 4.4 04:12:42 10° N 04:18:49 89° W 04:24:58 10° S
ASTRO E2 3.7 04:18:28 25° SSW 04:19:54 32° SSE 04:23:30 10° E
Cosmos 1302 Rocket 3.9 04:16:43 10° NNW 04:22:01 74° WSW 04:27:16 10° S
Cosmos 1932 4.3 04:16:32 10° NNW 04:22:43 73° WSW 04:28:51 10° SSE
Cosmos 2251 Rocket 4.3 04:21:54 21° WSW 04:24:50 38° WNW 04:29:51 10° N
BREEZE-M DEB (TANK) 4.3 04:19:49 13° W 04:26:06 39° NNW 04:29:17 10° NE
SL-24 DEB 4.3 04:21:27 10° S 04:26:12 69° W 04:30:58 10° N
CCE 1 Rocket 4.1 04:24:58 24° SW 04:26:44 37° S 04:31:07 10° ESE
ADEOS 4.4 04:25:11 10° N 04:29:51 34° WNW 04:33:05 18° SW
Lacrosse 5 3.7 04:31:02 10° S 04:35:07 25° ESE 04:39:13 10° ENE
Cosmos 405 Rocket 3.1 04:39:47 10° NNW 04:43:24 40° W 04:46:55 10° SSW
CZ-4B R/B 3.0 04:41:26 10° NNE 04:45:01 64° ESE 04:48:38 10° S
Cosmos 2228 Rocket 4.2 04:43:36 10° NNW 04:47:25 26° W 04:51:03 11° SW
Intelsat 5-3 Rocket 4.4 04:49:18 12° SW 04:54:44 23° S 04:58:03 10° SE
SeaSat 1 4.3 04:54:26 11° WSW 04:54:57 11° WSW 04:56:04 10° W
GENESIS II 4.2 04:54:18 10° SSW 04:58:10 90° NW 05:02:05 10° NNE
ATLAS 2AS CENTAUR R/B 3.6 04:53:08 11° WSW 05:00:17 45° NW 05:08:01 10° NNE
Cosmos 1666 Rocket 3.6 04:59:14 10° S 05:03:41 79° W 05:08:10 10° N
GP-B 4.3 05:00:32 10° NNW 05:04:09 25° W 05:07:44 10° SW
Cosmos 1633 Rocket 3.1 05:00:22 10° S 05:04:42 85° E 05:09:04 10° N
In-Cosmos 22 Rocket 4.5 05:03:24 10° SSW 05:08:39 47° W 05:13:50 10° N
Meteor PRIRODA 4.2 05:06:35 10° NNE 05:10:18 62° E 05:13:59 10° S
Cosmos 2098 Rocket 4.3 05:04:31 10° NNW 05:10:46 59° W 05:17:56 10° S
PSLV R/B 4.3 05:09:24 10° N 05:13:18 35° WNW 05:17:12 10° SW
Okean O Rocket 1.8 05:09:54 10° NNE 05:14:17 78° E 05:18:41 10° S
Cosmos 407 Rocket 3.6 05:09:55 10° SSW 05:15:03 82° ESE 05:20:11 10° NNE
Cosmos 1992 Rocket 4.0 05:11:07 10° NNW 05:16:17 70° WSW 05:21:26 10° S
